Location: Unspecified
(43.4680°N, 87.1740°E)
Time: 17:15:16
(UTC+00:00)

ISS - Pass Details

Date: 26 September 2021
Orbit: 417 x 423 km, 51.6° (Epoch: 28 October)

Event Time Altitude Azimuth Distance (km) Brightness Sun altitude
Rises 12:41:55 0° 286° (WNW) 2,362 2.2 -8.1°
Reaches altitude 10° 12:44:23 10° 303° (WNW) 1,500 0.2 -8.6°
Maximum altitude 12:47:00 21° 354° (N) 1,019 -1.7 -9.0°
Drops below altitude 10° 12:49:37 10° 45° (NE) 1,504 -1.3 -9.5°
Enters shadow 12:50:24 - 53° (NE) 1,761 -1.0 -9.7°
